STARLINK-1780

decayed
NORAD ID: 46684 Int'l Des: 2020-073 Owner: SPXS Country: US Constellation: starlink
LEOCIRCULAR
グループ

STARLINK-1780について

説明を読み込み中...

高度履歴

Altitude vs Time

uPlot chart will show altitude changes over time

軌道要素

1 46684U 20073Q 25048.33734924 .21413134 12560-4 55689-3 0 9997
2 46684 53.0188 132.4030 0002651 323.8170 113.0914 16.45837126240071
Epoch: Feb 17, 2025 • Age: 4898 hours

現在のステータス

Position data unavailable
打ち上げ日 Oct 18, 2020
運用期間 4.8 years
落下予定日 Feb 17, 2025
タイプ internet

技術仕様

分類 Payload
質量 260.00 kg
乾燥質量 248.00 kg
総質量 260.00 kg
長さ 0.20 m
直径 2.80 m
スパン 9.00 m
形状 Box + pan
製造者 SPXS
バスタイプ Starlink
フェーズステータス Unknown Transfer Status
所有者/国 SPXS/US

大規模コンステレーション

Loading constellations...